METEOR 2-7 DEB, 28389

Orbit data source: Space-Track

METEOR 2-7 DEB, 28389 is space debris in LEO originally from a launch on Thu, 14 May 1981 UTC launched from the Plesetsk Missile And Space Complex (PKMTR). Debris objects in space refer to the collection of defunct objects orbiting the Earth. Examples of debris include non-operational satellites, rocket bodies, and fragments generated from explosions, collisions, or faulty payload assembly.

Loading next visibility...
Identifier
28389, 1981-043F
Orbit
LEO
Country
Flag of CISCIS
Related business
Manufacturer
Unknown
Mission
Spacecraft
Bus & Motor
Unknown
Mass
Unknown
Launch date (UTC)
1981-05-14 (44 years ago)
Launch vehicle
Unknown
Launch site
Plesetsk Missile And Space Complex (PKMTR)
Object type
Payload
Rocket body
Debris
Shape & HBR
Unknown shape, 0.1 m
Radar Cross Section
Small (<0.1 m²)

Expand to show TLE details & history
Last TLE update: 5 days ago

TLE from 5 days ago
0 METEOR 2-7 DEB
1 28389U 81043F   25306.55886422  .00005367  00000-0  11720-2 0  9996
2 28389  81.2693 156.8024 0027318 328.7628  31.1944 14.57501089 94931
Epoch: 2025-11-02T13:24Z
TLE epoch observation values (Epoch: 2025-11-02T13:24:45.868Z)
Latitude
-0.00005°
Longitude
-86.46158°
Altitude
687.687 km
Speed
7.521 km/s
True Right ascension
10h 27m 12s
True Declination
0° 00' 00"
Sunlit
Object was in daylight at epoch
Visualization orbit readout
Latitude
Unknown
Longitude
Unknown
Altitude
Unknown
Speed
Unknown
Apparent Right ascension
Unknown
Apparent Declination
Unknown
Sunlit
N/A
Visualization observer readout
Local Sidereal Time
08:09:18
Azimuth
Unknown
Elevation
Unknown
Doppler factor
Unknown
Orbital elements
Apogee altitude
717.696 km
Perigee altitude
679.032 km
Semi-major axis
7,076.501 km
Eccentricity
0.00273
Inclination
81.2693°
RAAN
156.8024°
Arg. of periapsis
328.7628°
True anomaly
31.35701°
Mean anomaly
31.1944°
Eccentric anomaly
31.27566°
Mean motion
3.64599 °/min
Orbital period
98.74 mins
BSTAR
0.001172
Loading maneuver chart data...
Computing Atmospheric mass density...
Loading historical data...
Loading historical data...
Loading historical data...
Loading historical data...
Loading historical data...
Loading historical data...
Loading historical data...

Documentation

Showing up to 5 results
|